Meath Environmental Platform

Observations for Trim Patrick St

Time AQI Temp °C Hum % Pres Pa CO μg/m³ H₂S μg/m³ NO μg/m³ NO₂ μg/m³ O₃ μg/m³ SO₂ μg/m³ PM1 μg/m³ PM2.5 μg/m³ PM10 μg/m³
Wednesday 26 August 2026
14:34 2 25.9 64 7,558 0 0 3.37 15.62 45.56 6.64 12.29 19.52 21.48
14:33 2 25.8 66 8,349 0 0 3.6 10.95 42.89 5.82 14.86 20.73 22.8
14:32 2 25.8 63 14,928 0 0 3.29 9.67 53.71 6.26 14.86 22.49 24.73
14:31 2 25.7 65 24,522 0 0 3.32 9 52.19 6.49 12.29 20.07 22.08
14:30 2 25.5 66 32,954 0 0 3.44 9.48 49.04 5.35 14 20.74 22.81
14:29 2 25.4 67 38,425 0 0 3.38 11.46 48.77 6.46 14.86 19.88 21.87
14:28 2 25.3 67 38,413 0 0 3.25 8.64 51.58 5.47 12.29 20.63 22.69
14:27 2 25.2 67 38,398 0 0 3.35 11.85 52.78 6.46 13.14 20.62 22.68
14:26 2 25 65 38,377 0 0 3.39 10.76 51.11 4.74 13.14 21.55 23.71
14:25 2 25 68 38,350 0 0 3.08 7.17 52.17 6.56 14.86 24.85 27.34
14:24 2 24.9 69 38,312 0 0 2.93 11.88 45.11 5.13 14 22.62 23.33
14:22 2 24.7 66 38,196 0 0 3.16 10.67 48.97 4.68 14 20.7 22.77
14:21 2 24.7 68 38,108 0 0 3.19 9.02 51.11 5.04 14.86 20.52 22.57
14:20 2 24.7 66 37,991 0 0 3.4 7.9 54.25 4.31 12.29 20.7 22.77
14:19 2 24.6 65 37,835 0 0 3.43 3.56 54.09 4.5 15.71 23.03 25.33
14:17 2 24.7 67 38,460 0.04 0 3.64 3.55 52.02 5.33 13.14 21.31 23.44
14:13 2 24.7 68 38,460 0.11 0 3.04 7.93 44.18 4.79 15.71 24.14 26.55
14:12 2 24.7 68 38,460 0.06 0 3.04 6.31 45.63 4.85 14.86 23.47 23.56
14:11 2 24.7 68 38,460 0.07 0 3.01 9.18 44.85 4.92 13.14 20.5 22.55
14:10 2 24.7 70 38,460 0.11 0 3.03 7.9 42.49 4.53 13.14 18.82 20.7